Find OneWeb SL0687

NORAD ID: 61595 Int'l Des: 2024-188 Owner: ONEWEBE Country: UK Constellation: oneweb operational
LEOCIRCULARPOLARONEWEB_TYPE

リアルタイム位置

3D地球を読み込み中...

OneWeb SL0687について

説明を読み込み中...

次回通過

Passes for default location (London). Set your location on the main map for personalized predictions.

高度履歴

Loading altitude history...

軌道要素

1 61595U 24188B 26124.11187231 .00000032 00000-0 49869-4 0 9993
2 61595 87.9170 14.6389 0001626 97.2279 262.9037 13.17647934 80093
Epoch: May 4, 2026 • Age: 13 hours

現在のステータス

高度 1198.9 km
速度 7.26 km/s
衛星直下点 41.05°N, 80.94°W
打ち上げ日 Oct 20, 2024
運用期間 1.5 years
タイプ internet

技術仕様

分類 Payload
質量 148.00 kg
乾燥質量 140.00 kg
総質量 148.00 kg
長さ 1.30 m
直径 1.00 m
スパン 5.00 m
形状 Trapezoid+2 pan
製造者 ONEWUS
バスタイプ ARROW
フェーズステータス In Orbit
所有者/国 ONEWEBE/UK

Most Searched